Regional Weather Roundup
Issued by NWS

Home | Current Version | Previous Version | Text Only | Print | Product List | Glossary On
Versions: 1 2 3 4 5 6 7 8 9 10 11 12 13 14 15 16 17 18 19 20 21 22 23 24 25 26 27 28 29 30 31 32 33 34 35 36 37 38 39 40 41 42 43 44 45 46 47 48 49 50
000
ASUS44 KLIX 022110
RWRLA
LOUISIANA WEATHER ROUNDUP
NATIONAL WEATHER SERVICE NEW ORLEANS LA
400 PM CDT TUE SEP 02 2014

NOTE: "FAIR" INDICATES FEW OR NO CLOUDS BELOW 12,000 FEET WITH NO
      SIGNIFICANT WEATHER AND/OR OBSTRUCTIONS TO VISIBILITY.
      SKY/WX - SKY CONDITION AND SIGNIFICANT WEATHER.
      TMP - AIR TEMPERATURE.    DP   - DEWPOINT TEMPERATURE.
      RH  - RELATIVE HUMIDITY.  PRES - PRESSURE.
      HX  - HEAT INDEX.         WCI  - WIND CHILL INDEX.

*  THESE STATIONS ARE NOT NWS OR FAA STATIONS AND ARE NOT UNDER
   NWS QUALITY CONTROL.

LAZ040-048-061>063-065-066-069-022200-
SOUTHEAST LOUISIANA

CITY           SKY/WX    TMP DP  RH WIND       PRES   REMARKS
N.O. AUDUBON     N/A     90  78  66 MISG        N/A  HX 104
N.O. INTL ARPT PTSUNNY   90  71  53 S14       29.99F HX  96
N.O. LAKEFRONT LGT RAIN  84  77  79 SE12      30.00F
N.O. DOWNTOWN* CLOUDY    81  70  69 E8        30.00F
SLIDELL        MOSUNNY   90  74  59 S8        29.99F HX  99
BATON ROUGE    TSTM      81  73  76 NW7       29.99S
BOOTHVILLE     LGT RAIN  79  75  87 NW5       30.01F FOG
BELLE CHASSE   PTSUNNY   89  73  59 S10       29.99F HX  97
BOGALUSA*      FAIR      88  74  63 SW3       30.01F HX  96
GALLIANO*      NOT AVBL
NEW ROADS*     FAIR      89  76  66 MISG      29.98F HX 100
GONZALES*      FAIR      84  78  81 S7G17     29.99R HX  95
HAMMOND*       PTSUNNY   93  70  46 W5        30.00F HX  99
HOUMA*         MOSUNNY   90  72  55 S8        29.99F HX  96
PORT FOURCHON* PTCLDY    88  75  66 SE6       30.02F HX  97

$$

LAZ041-044-053-054-022200-
SOUTHWEST LOUISIANA

CITY           SKY/WX    TMP DP  RH WIND       PRES   REMARKS
LAKE CHARLES   PTSUNNY   88  76  67 S7        29.98F HX  99
LAFAYETTE      MOSUNNY   89  73  59 S10       29.98F HX  97
PATTERSON      MOSUNNY   90  77  66 S10       30.01F HX 102
SALT POINT       N/A     91  77  63 VRB6      29.98F HX 104
NEW IBERIA     MOSUNNY   91  76  61 S12       29.99F HX 103
CHENAULT AIRPK MOSUNNY   90  73  58 S12       29.98F HX  98

$$

LAZ027-028-022200-
CENTRAL LOUISIANA

CITY           SKY/WX    TMP DP  RH WIND       PRES   REMARKS
FORT POLK      CLOUDY    81  76  84 N9        30.00R
ALEXANDRIA INT CLOUDY    79  75  87 NW7       30.00R
ALEXANDRIA     CLOUDY    78  74  87 CALM      30.02R

$$

LAZ001-002-022200-
NORTHWEST LOUISIANA

CITY           SKY/WX    TMP DP  RH WIND       PRES   REMARKS
SHREVEPORT     CLOUDY    76  73  91 SE6       30.02S THUNDER
BARKSDALE AFB  LGT RAIN  75  74  96 SW10      30.02F
DTN SHREVEPORT TSTM      76  74  93 S14       30.02S

$$

LAZ014-016-022200-
NORTHEAST LOUISIANA

CITY           SKY/WX    TMP DP  RH WIND       PRES   REMARKS
MONROE         HVY RAIN  75  73  94 NW7       30.03F FOG
TALLULAH       CLOUDY    85  74  69 VRB3      29.97F

$$



USA.gov is the U.S. government's official web portal to all federal, state and local government web resources and services.